Location: Lane
(33.5226°N, 79.8788°W)
Time: 09:48:08
(UTC+00:00)

Altair - Pass Details

Date: 04 October 2022
Orbit: 1501 x 1682 km, 47.2° (Epoch: 30 November)

Event Time Altitude Azimuth Distance (km) Brightness Sun altitude
Rises 14:10:35 0° 300° (WNW) 4,871 9.6 33.4°
Reaches altitude 10° 14:13:58 10° 307° (NW) 3,903 9.2 34.0°
Maximum altitude 14:23:29 45° 18° (NNE) 2,181 8.6 35.6°
Drops below altitude 10° 14:33:04 10° 88° (E) 3,940 10.4 37.2°
Sets 14:36:28 0° 95° (E) 4,920 10.8 37.8°
